EW6409 Weather Reports


time (UTC)temp
F
wind
direction
speed
knots
gust
knots
rain 1hr
in
rain 24hr
in
rain mn
in
humidity
%
barometer
mb
20260507023053 63 328 0.0 0.0 0.00 0.00 0.00 65 1014.1
20260507021554 64 360 0.0 0.0 0.00 0.00 0.00 64 1013.9
20260507020054 65 360 0.0 0.9 0.00 0.00 0.00 63 1013.8
20260507014557 66 295 0.0 2.6 0.00 0.00 0.00 61 1013.7
20260507013109 68 304 0.0 0.9 0.00 0.00 0.00 59 1013.6
20260507011552 69 296 0.0 2.6 0.00 0.00 0.00 56 1013.5
20260507010103 70 288 0.0 1.7 0.00 0.00 0.00 55 1013.4
20260507004552 71 324 0.0 1.7 0.00 0.00 0.00 55 1013.4
20260507003051 71 240 0.0 0.9 0.00 0.00 0.00 54 1013.4
20260507001553 72 265 0.0 0.9 0.00 0.00 0.00 53 1013.4
20260507000048 72 150 0.0 1.7 0.00 0.00 0.00 52 1013.2
20260506234549 73 256 0.0 1.7 0.00 0.00 0.00 52 1013.4
20260506233100 73 91 0.0 1.7 0.00 0.00 0.00 52 1013.3
20260506231546 73 46 0.0 0.9 0.00 0.00 0.00 52 1013.4
20260506230048 74 198 0.0 1.7 0.00 0.00 0.00 52 1013.4
20260506224543 74 298 0.0 3.5 0.00 0.00 0.00 52 1013.5
20260506223041 75 272 0.0 6.1 0.00 0.00 0.00 51 1013.7
20260506221540 75 297 0.0 3.5 0.00 0.00 0.00 50 1013.9
20260506220041 75 191 0.0 1.7 0.00 0.00 0.00 50 1014.1
20260506214536 76 256 0.0 3.5 0.00 0.00 0.00 49 1014.2
20260506213033 77 101 0.0 0.0 0.00 0.00 0.00 48 1014.4
20260506211535 76 202 0.0 2.6 0.00 0.00 0.00 51 1014.6
20260506210036 77 138 0.0 3.5 0.00 0.00 0.00 48 1014.8
20260506204529 77 86 0.0 0.9 0.00 0.00 0.00 48 1014.8
20260506203026 76 129 0.0 0.0 0.00 0.00 0.00 50 1015.0
20260506201525 75 258 0.0 2.6 0.00 0.00 0.00 49 1015.2
20260506200035 74 69 0.0 1.7 0.00 0.00 0.00 50 1015.3
20260506194521 74 38 0.0 0.9 0.00 0.00 0.00 52 1015.5
20260506193017 73 74 0.0 1.7 0.00 0.00 0.00 53 1015.7
20260506191514 72 56 0.0 0.9 0.00 0.00 0.00 55 1016.0
20260506190011 71 98 0.0 0.9 0.00 0.00 0.00 56 1016.0
20260506184508 70 69 0.0 0.9 0.00 0.00 0.00 59 1016.1
20260506183006 70 67 0.0 0.0 0.00 0.00 0.00 59 1016.3
20260506181504 68 82 0.0 0.0 0.00 0.00 0.00 60 1016.3
20260506180008 68 143 0.0 0.0 0.00 0.00 0.00 61 1016.4
20260506174602 68 51 0.0 0.0 0.00 0.00 0.00 61 1016.4
20260506173111 67 80 0.0 0.0 0.00 0.00 0.00 62 1016.4
20260506171558 65 80 0.0 0.0 0.00 0.00 0.00 65 1016.4
20260506170059 64 171 0.0 0.0 0.00 0.00 0.00 68 1016.4
20260506164605 63 78 0.0 0.0 0.00 0.00 0.00 69 1016.3
20260506163044 61 161 0.0 0.0 0.00 0.00 0.00 71 1016.4
20260506161539 60 117 0.0 0.0 0.00 0.00 0.00 73 1016.4
20260506160037 59 140 0.0 0.0 0.00 0.00 0.00 77 1016.4
20260506154538 58 136 0.0 0.0 0.00 0.00 0.00 79 1016.5
20260506153031 57 109 0.0 0.0 0.00 0.00 0.00 82 1016.5
20260506151526 56 107 0.0 0.0 0.00 0.00 0.00 84 1016.5
20260506150025 55 53 0.0 0.0 0.00 0.00 0.00 87 1016.5
20260506144522 54 51 0.0 0.0 0.00 0.00 0.00 87 1016.6
20260506143017 53 28 0.0 0.0 0.00 0.00 0.00 87 1016.6
20260506141514 51 360 0.0 0.0 0.00 0.00 0.00 87 1016.5
20260506140010 50 295 0.0 0.0 0.00 0.00 0.00 87 1016.3
20260506134508 49 360 0.0 0.0 0.00 0.00 0.00 87 1016.1
20260506133007 48 295 0.0 0.0 0.00 0.00 0.00 87 1016.1
20260506131508 48 295 0.0 0.0 0.00 0.00 0.00 87 1016.0
20260506130013 48 295 0.0 0.0 0.00 0.00 0.00 87 1015.8
20260506124504 48 295 0.0 0.0 0.00 0.00 0.00 87 1015.7
20260506123003 49 295 0.0 0.0 0.00 0.00 0.00 87 1015.6
20260506121502 48 295 0.0 0.0 0.00 0.00 0.00 87 1015.5
20260506120002 48 295 0.0 0.0 0.00 0.00 0.00 86 1015.5
20260506114503 48 295 0.0 0.0 0.00 0.00 0.00 86 1015.4
20260506113109 48 295 0.0 0.0 0.00 0.00 0.00 86 1015.3
20260506111600 48 295 0.0 0.0 0.00 0.00 0.00 86 1015.3
20260506110101 48 295 0.0 0.0 0.00 0.00 0.00 85 1015.2
20260506104557 48 295 0.0 0.0 0.00 0.00 0.00 85 1015.4
20260506103056 48 295 0.0 0.0 0.00 0.00 0.00 84 1015.3
20260506101555 48 295 0.0 0.0 0.00 0.00 0.00 84 1015.2
20260506100054 49 295 0.0 0.0 0.00 0.00 0.00 84 1015.3
20260506094553 49 295 0.0 0.0 0.00 0.00 0.00 83 1015.2
20260506093053 49 294 0.0 0.0 0.00 0.00 0.00 83 1015.3
20260506091549 50 294 0.0 0.0 0.00 0.00 0.00 83 1015.3
20260506090047 50 294 0.0 0.0 0.00 0.00 0.00 83 1015.6
20260506084545 50 291 0.0 0.0 0.00 0.00 0.00 84 1015.7
20260506083046 49 290 0.0 0.0 0.00 0.00 0.00 83 1015.7
20260506081548 49 289 0.0 0.0 0.00 0.00 0.00 83 1015.8
20260506073040 50 289 0.0 0.0 0.00 0.00 0.00 83 1015.9
20260506071548 50 288 0.0 0.0 0.00 0.00 0.00 83 1015.7
20260506061535 50 360 0.0 0.0 0.00 0.00 0.00 81 1015.1
20260506044530 52 289 0.0 0.0 0.00 0.00 0.00 78 1014.5
20260506043023 53 289 0.0 0.0 0.00 0.00 0.00 77 1014.4
20260506041521 53 290 0.0 0.0 0.00 0.00 0.00 77 1014.0
20260506040019 53 290 0.0 0.0 0.00 0.00 0.00 75 1013.8
20260506034518 54 290 0.0 0.0 0.00 0.00 0.00 73 1013.7
20260506033016 55 290 0.0 0.0 0.00 0.00 0.00 71 1013.5
20260506031517 56 289 0.0 0.0 0.00 0.00 0.00 70 1013.3
20260506030013 57 290 0.0 0.0 0.00 0.00 0.00 69 1013.0
20260506024511 58 290 0.0 0.0 0.00 0.00 0.00 69 1012.7